{"data":{"norad_id":63930,"epoch":"2026-05-25T02:23:30.803712Z","epoch_age_seconds":56669,"freshness":"FRESH","line1":"1 63930U 25098E   26145.09966208  .00003002  00000+0  25923-3 0  9991","line2":"2 63930  70.0007  81.9761 0003040 268.9929  91.0881 14.98337437 58011","mean_motion":14.98337437,"eccentricity":0.000304,"inclination_deg":70.0007,"raan_deg":81.9761,"arg_perigee_deg":268.9929,"mean_anomaly_deg":91.0881,"bstar":0.00025923,"rev_number":5801,"period_min":96.106522098466,"perigee_km":569.92004108313,"apogee_km":574.14574437791,"semimajor_km":6950.1698927305,"source":"CELESTRAK","updated_at":"2026-05-25T13:38:20.183191Z"}}